Back to catalog

SHIYAN 6

SY-6

AliveScienceSSO
NORAD 43711·PAYLOAD·🇨🇳 China

Launched Nov 19, 2018 from Jiuquan Satellite Launch Center

Loading…

Next Passes (next 24 hours)

TLE

FreshSource: Space-Track

Epoch: Sep 14, 2026, 07:15 UTC

1 43711U 18094B   26257.30262281  .00003836  00000-0  13293-3 0  9995
2 43711  97.3598 270.6225 0012381 183.8560 176.2587 15.30372393435115

Track SHIYAN 6 in real time with AllMySat

Download on the App Store